GW4389 Weather Reports


time (UTC)temp
F
wind
direction
speed
knots
gust
knots
rain 1hr
in
rain 24hr
in
rain mn
in
humidity
%
barometer
mb
20260505022548 56 239 5.2 7.0 0.00 0.00 0.00 41 1012.4
20260505022045 57 279 6.1 8.7 0.00 0.00 0.00 41 1012.3
20260505021542 57 271 5.2 7.8 0.00 0.00 0.00 41 1012.3
20260505021038 57 258 4.3 7.0 0.00 0.00 0.00 40 1012.6
20260505020533 57 267 6.1 9.6 0.00 0.00 0.00 40 1012.3
20260505020030 58 266 5.2 7.8 0.00 0.00 0.00 40 1012.4
20260505015527 58 254 2.6 5.2 0.00 0.00 0.00 40 1012.4
20260505015024 59 233 3.5 5.2 0.00 0.00 0.00 39 1012.3
20260505014521 59 228 3.5 5.2 0.00 0.00 0.00 38 1012.4
20260505014018 60 282 4.3 6.1 0.00 0.00 0.00 37 1012.3
20260505013515 60 218 3.5 5.2 0.00 0.00 0.00 37 1012.1
20260505013012 61 181 2.6 5.2 0.00 0.00 0.00 35 1012.0
20260505012510 61 177 3.5 3.5 0.00 0.00 0.00 28 1011.9
20260505012007 60 66 5.2 6.1 0.00 0.00 0.00 32 1011.7
20260505011502 60 12 5.2 7.0 0.00 0.00 0.00 29 1011.5
20260505011000 61 5 13.9 14.8 0.00 0.00 0.00 30 1011.4
20260505010455 61 54 4.3 6.1 0.00 0.00 0.00 27 1011.9
20260505005952 66 354 8.7 11.3 0.00 0.00 0.00 24 1012.0
20260505005448 66 291 4.3 6.1 0.00 0.00 0.00 24 1011.5
20260505004946 67 294 3.5 5.2 0.00 0.00 0.00 24 1011.9
20260505004443 66 261 2.6 2.6 0.00 0.00 0.00 24 1011.7
20260505003940 67 269 5.2 6.1 0.00 0.00 0.00 27 1011.8
20260505003437 65 182 1.7 3.5 0.00 0.00 0.00 29 1012.0
20260505002933 65 213 9.6 12.2 0.00 0.00 0.00 30 1012.0
20260505002429 63 224 9.6 13.0 0.00 0.00 0.00 33 1011.8
20260505001928 63 223 5.2 7.0 0.00 0.00 0.00 32 1011.8
20260505001425 64 277 7.8 13.0 0.00 0.00 0.00 33 1011.9
20260505000922 64 284 8.7 13.0 0.00 0.00 0.00 33 1012.1
20260505000420 64 262 6.1 7.0 0.00 0.00 0.00 32 1012.3
20260504235916 65 173 4.3 6.1 0.00 0.00 0.00 31 1012.0
20260504235414 64 218 7.8 9.6 0.00 0.00 0.00 31 1012.1
20260504234910 65 194 6.1 7.0 0.00 0.00 0.00 31 1012.0
20260504234408 65 213 3.5 3.5 0.00 0.00 0.00 24 1011.8
20260504233904 64 170 0.0 0.0 0.00 0.00 0.00 25 1011.9
20260504233359 65 214 2.6 2.6 0.00 0.00 0.00 24 1012.1
20260504232856 65 260 3.5 3.5 0.00 0.00 0.00 23 1011.9
20260504232354 65 2 6.1 7.8 0.00 0.00 0.00 24 1012.1
20260504231850 64 328 3.5 5.2 0.00 0.00 0.00 25 1011.8
20260504231347 65 324 4.3 5.2 0.00 0.00 0.00 24 1011.8
20260504230843 65 258 4.3 6.1 0.00 0.00 0.00 23 1011.9
20260504230341 66 339 0.9 1.7 0.00 0.00 0.00 21 1011.9
20260504225839 68 234 4.3 7.0 0.00 0.00 0.00 21 1011.7
20260504225335 67 289 6.1 7.0 0.00 0.00 0.00 22 1011.9
20260504224833 65 258 2.6 3.5 0.00 0.00 0.00 24 1011.8
20260504224330 65 279 2.6 5.2 0.00 0.00 0.00 23 1011.9
20260504223827 65 273 1.7 2.6 0.00 0.00 0.00 23 1012.0
20260504223322 66 285 5.2 6.1 0.00 0.00 0.00 22 1011.9
20260504222819 65 280 6.1 7.8 0.00 0.00 0.00 23 1011.9
20260504222316 65 296 7.8 8.7 0.00 0.00 0.00 23 1011.9
20260504221814 66 297 9.6 13.0 0.00 0.00 0.00 23 1012.1
20260504221310 68 311 7.8 11.3 0.00 0.00 0.00 22 1011.9
20260504220808 66 186 1.7 2.6 0.00 0.00 0.00 22 1012.1
20260504220304 66 257 3.5 3.5 0.00 0.00 0.00 21 1012.3
20260504215802 67 285 5.2 7.0 0.00 0.00 0.00 19 1012.0
20260504215258 68 252 2.6 3.5 0.00 0.00 0.00 19 1012.3
20260504214754 68 288 5.2 6.1 0.00 0.00 0.00 19 1012.3
20260504214251 68 216 1.7 1.7 0.00 0.00 0.00 19 1012.4
20260504213747 68 257 10.4 13.0 0.00 0.00 0.00 19 1012.3
20260504213243 67 322 1.7 2.6 0.00 0.00 0.00 20 1012.9
20260504212741 68 283 4.3 7.0 0.00 0.00 0.00 20 1012.6
20260504212237 69 196 0.9 1.7 0.00 0.00 0.00 21 1012.7
20260504211735 69 175 1.7 2.6 0.00 0.00 0.00 20 1012.6
20260504211231 69 278 7.0 8.7 0.00 0.00 0.00 20 1012.6
20260504210728 68 276 6.1 7.8 0.00 0.00 0.00 20 1012.7
20260504210225 67 287 5.2 5.2 0.00 0.00 0.00 20 1013.0
20260504205722 66 291 2.6 5.2 0.00 0.00 0.00 21 1012.9
20260504205220 67 281 8.7 11.3 0.00 0.00 0.00 20 1013.1
20260504204718 66 335 8.7 11.3 0.00 0.00 0.00 20 1013.0
20260504204216 66 194 2.6 3.5 0.00 0.00 0.00 20 1013.1
20260504203715 68 282 7.8 11.3 0.00 0.00 0.00 20 1013.1
20260504203212 67 10 4.3 6.1 0.00 0.00 0.00 20 1013.4
20260504202712 68 275 7.8 11.3 0.00 0.00 0.00 20 1013.0
20260504202209 67 300 7.0 8.7 0.00 0.00 0.00 20 1013.2
20260504201706 67 273 7.0 9.6 0.00 0.00 0.00 21 1013.2
20260504201204 68 292 10.4 12.2 0.00 0.00 0.00 21 1013.2
20260504200701 68 239 0.9 1.7 0.00 0.00 0.00 19 1013.4
20260504200157 66 294 2.6 3.5 0.00 0.00 0.00 21 1013.4
20260504195653 66 10 3.5 5.2 0.00 0.00 0.00 21 1013.5
20260504195149 68 200 5.2 6.1 0.00 0.00 0.00 20 1013.5
20260504194646 68 136 0.0 0.9 0.00 0.00 0.00 20 1013.6
20260504194142 66 289 4.3 6.1 0.00 0.00 0.00 21 1013.6
20260504193639 65 280 3.5 3.5 0.00 0.00 0.00 21 1013.7
20260504193137 67 251 3.5 5.2 0.00 0.00 0.00 20 1014.0
20260504192635 68 196 0.9 0.9 0.00 0.00 0.00 21 1014.0
20260504192133 67 234 2.6 2.6 0.00 0.00 0.00 22 1014.0
20260504191631 67 230 1.7 2.6 0.00 0.00 0.00 20 1013.8
20260504191127 68 235 3.5 3.5 0.00 0.00 0.00 20 1014.1
20260504190623 67 197 4.3 6.1 0.00 0.00 0.00 21 1014.1
20260504190120 67 7 0.0 0.0 0.00 0.00 0.00 19 1014.2
20260504185616 67 294 7.0 7.8 0.00 0.00 0.00 20 1014.5
20260504185113 66 15 3.5 5.2 0.00 0.00 0.00 20 1014.3
20260504184609 66 12 4.3 6.1 0.00 0.00 0.00 20 1014.3
20260504184104 67 305 1.7 3.5 0.00 0.00 0.00 20 1014.3
20260504183601 65 355 0.9 1.7 0.00 0.00 0.00 21 1014.3
20260504183059 66 301 0.9 2.6 0.00 0.00 0.00 22 1014.6
20260504182556 66 2 2.6 3.5 0.00 0.00 0.00 21 1014.7
20260504182053 64 51 0.0 0.0 0.00 0.00 0.00 21 1014.9
20260504181550 63 286 0.9 0.9 0.00 0.00 0.00 22 1014.9
20260504181048 66 342 2.6 3.5 0.00 0.00 0.00 22 1015.1
20260504180547 64 338 0.0 0.0 0.00 0.00 0.00 22 1015.1
20260504180046 64 287 2.6 2.6 0.00 0.00 0.00 21 1015.1
20260504175542 67 278 4.3 5.2 0.00 0.00 0.00 21 1015.2
20260504175039 68 275 0.0 0.9 0.00 0.00 0.00 22 1015.2
20260504174537 66 278 0.0 0.9 0.00 0.00 0.00 22 1015.2
20260504174034 66 113 0.9 0.9 0.00 0.00 0.00 21 1015.6
20260504173531 64 288 2.6 2.6 0.00 0.00 0.00 21 1015.3
20260504173028 64 275 2.6 3.5 0.00 0.00 0.00 22 1015.4
20260504172524 66 22 0.9 0.9 0.00 0.00 0.00 22 1015.3
20260504172021 64 151 2.6 3.5 0.00 0.00 0.00 23 1015.2
20260504171518 65 270 2.6 3.5 0.00 0.00 0.00 24 1015.4
20260504171015 63 276 1.7 1.7 0.00 0.00 0.00 23 1015.4
20260504170510 63 289 3.5 5.2 0.00 0.00 0.00 24 1015.6
20260504160425 61 238 3.5 3.5 0.00 0.00 0.00 28 1015.6
20260504150849 55 14 1.7 1.7 0.00 0.00 0.00 38 1016.2
20260504150346 54 21 0.9 1.7 0.00 0.00 0.00 38 1016.3
20260504141316 50 158 0.0 0.0 0.00 0.00 0.00 43 1016.7
20260504140812 47 148 0.0 0.0 0.00 0.00 0.00 45 1016.5
20260504140308 46 124 0.0 0.0 0.00 0.00 0.00 48 1016.5
20260504130737 46 222 6.1 7.8 0.00 0.00 0.00 45 1016.0
20260504130233 46 222 5.2 7.8 0.00 0.00 0.00 44 1015.8
20260504120156 39 208 0.0 0.0 0.00 0.00 0.00 55 1015.6
20260504110624 41 183 1.7 2.6 0.00 0.00 0.00 51 1015.7
20260504110120 41 212 3.5 5.2 0.00 0.00 0.00 51 1015.8
20260504100545 42 211 0.9 2.6 0.00 0.00 0.00 51 1015.8
20260504081939 42 226 0.0 0.9 0.00 0.00 0.00 48 1016.8
20260504081436 41 229 0.9 1.7 0.00 0.00 0.00 49 1016.8
20260504080932 40 223 0.9 2.6 0.00 0.00 0.00 52 1016.9
20260504080429 40 209 1.7 2.6 0.00 0.00 0.00 51 1016.9
20260504070357 40 217 2.6 5.2 0.00 0.00 0.00 52 1017.4
20260504050738 44 200 0.0 0.0 0.00 0.00 0.00 42 1017.6
20260504050235 45 185 0.0 0.0 0.00 0.00 0.00 41 1017.8
20260504045732 46 206 0.0 0.0 0.00 0.00 0.00 40 1017.6
20260504045227 46 211 0.0 0.0 0.00 0.00 0.00 39 1017.5
20260504044725 47 209 0.0 0.0 0.00 0.00 0.00 37 1017.8
20260504044223 48 194 0.0 0.0 0.00 0.00 0.00 36 1017.8
20260504043720 49 199 0.0 0.0 0.00 0.00 0.00 35 1017.8
20260504043216 49 198 0.0 0.0 0.00 0.00 0.00 34 1017.6
20260504042714 50 200 0.0 0.0 0.00 0.00 0.00 32 1017.9
20260504042210 52 215 0.0 0.0 0.00 0.00 0.00 31 1017.6
20260504041706 53 253 0.0 0.0 0.00 0.00 0.00 29 1017.8
20260504041202 53 225 0.0 0.0 0.00 0.00 0.00 29 1017.8
20260504040659 53 240 0.0 0.0 0.00 0.00 0.00 28 1017.9
20260504040156 53 278 0.9 0.9 0.00 0.00 0.00 28 1017.8
20260504035652 53 265 0.0 0.9 0.00 0.00 0.00 27 1017.8
20260504035150 54 225 0.0 0.0 0.00 0.00 0.00 28 1017.5
20260504034647 54 214 0.0 0.0 0.00 0.00 0.00 28 1017.5
20260504034144 53 285 0.0 0.0 0.00 0.00 0.00 28 1017.5
20260504033642 54 262 0.0 0.0 0.00 0.00 0.00 28 1017.5
20260504033139 55 211 0.0 0.0 0.00 0.00 0.00 28 1017.4
20260504032635 55 206 0.0 0.0 0.00 0.00 0.00 27 1017.4
20260504032133 55 211 0.0 0.9 0.00 0.00 0.00 26 1017.3
20260504031630 55 240 0.0 0.0 0.00 0.00 0.00 27 1017.4
20260504031126 55 259 0.0 0.9 0.00 0.00 0.00 27 1017.3
20260504030623 55 203 0.0 0.0 0.00 0.00 0.00 27 1017.1
20260504030120 56 225 0.0 0.0 0.00 0.00 0.00 27 1017.0
20260504025617 56 238 0.0 0.0 0.00 0.00 0.00 27 1017.1
20260504025113 56 195 0.0 0.0 0.00 0.00 0.00 27 1017.0
20260504024611 56 234 0.0 0.0 0.00 0.00 0.00 27 1017.1
20260504024107 57 271 0.0 0.0 0.00 0.00 0.00 26 1017.0
20260504023604 57 220 0.0 0.0 0.00 0.00 0.00 26 1017.0
20260504023100 57 215 0.0 0.0 0.00 0.00 0.00 26 1016.9